ATLAS 5 CENTAUR DEB, 43959

Orbit data source: Space-Track

ATLAS 5 CENTAUR DEB, 43959 is space debris in HEO originally from a launch on Wed, 17 Sep 2014 UTC launched from the Air Force Eastern Test Range (AFETR). Debris objects in space refer to the collection of defunct objects orbiting the Earth. Examples of debris include non-operational satellites, rocket bodies, and fragments generated from explosions, collisions, or faulty payload assembly.

Loading next visibility...
Identifier
43959, 2014-055N
Orbit
HEO
Country
Flag of USUS
Related business
Flag of USUnited Launch Alliance/Lockheed Martin (US)
Manufacturer
Unknown
Mission
Spacecraft
Bus & Motor
Unknown
Mass
Unknown
Launch date (UTC)
2014-09-17 (12 years ago)
Launch vehicle
Unknown
Launch site
Air Force Eastern Test Range (AFETR)
Object type
Payload
Rocket body
Debris
Shape & HBR
Unknown shape, 1.1 m
Radar Cross Section
Small (<0.1 m²)

Expand to show TLE details & history
Last TLE update: 12 hours ago

TLE from 12 hours ago
0 ATLAS 5 CENTAUR DEB
1 43959U 14055N   26119.61711605 -.00000008  00000-0  00000+0 0  9999
2 43959  19.9827 141.8771 5038632 165.3653 217.5727  1.81433285 50789
Epoch: 2026-04-29T14:48Z
TLE epoch observation values (Epoch: 2026-04-29T14:48:38.826Z)
Latitude
-0.00002°
Longitude
62.19123°
Altitude
34,930.191 km
Speed
2.294 km/s
True Right ascension
09h 27m 42s
True Declination
0° 00' 00"
Sunlit
Object was in daylight at epoch
Visualization orbit readout
Latitude
Unknown
Longitude
Unknown
Altitude
Unknown
Speed
Unknown
Apparent Right ascension
Unknown
Apparent Declination
Unknown
Sunlit
N/A
Visualization observer readout
Local Sidereal Time
10:32:41
Azimuth
Unknown
Elevation
Unknown
Doppler factor
Unknown
Orbital elements
Apogee altitude
36,328.577 km
Perigee altitude
7,711.158 km
Semi-major axis
28,398.005 km
Eccentricity
0.50386
Inclination
19.9827°
RAAN
141.8771°
Arg. of periapsis
165.3653°
True anomaly
194.66509°
Mean anomaly
217.5727°
Eccentric anomaly
205.25549°
Mean motion
0.45354 °/min
Orbital period
793.76 mins
BSTAR
0
Loading maneuver chart data...
Computing Atmospheric mass density...

Documentation

Showing up to 5 results
|